User: anonymous   Login
Location: Silent Lake
(44.9206°N, 78.0708°W)
Time: 01:19:10
(UTC-04:00)
Language:

Terra - Orbit

View from above orbital plane
View from above orbital plane
View from above satellite
View from above satellite

Ground track
Ground track

The orbit data is extracted from the following two-line orbital elements,

1 25994U 99068A   18288.78843025  .00000145  00000-0  42179-4 0  9992
2 25994  98.1987   1.8524 0001606 104.9956   3.8038 14.57126112  1384
Epoch (UTC): 15 October 2018 18:55:20
Eccentricity: 0.0001606
inclination: 98.1987°
perigee height: 701 km
apogee height: 703 km
right ascension of ascending node: 1.8524°
argument of perigee: 104.9956°
revolutions per day: 14.57126112
mean anomaly at epoch: 3.8038°
orbit number at epoch: 138

The dashed part of the orbit path shows where the satellite is in the earth's shadow,  

DLR